Home   Weather   Holon   Past weeks

Flag for Israel Past Weather in Holon, Israel — Yesterday and Last 2 Weeks

Now
66 °F

Passing clouds.


Feels Like: 66 °F
Forecast: 67 / 89 °F
Wind: 5 mph from Southeast

Location: Dov Airport

Current Time: May 26, 2017 at 6:34:27 am

Latest Report: May 26, 2017 at 5:50 am


Visibility: N/A

Pressure: 29.92 "Hg

Humidity: 78%

Dew Point: 59 °F

Location of HolonLocation

Past Weather in Holon — Graph

°F

Holon Temperature Yesterday

Maximum temperature yesterday: 75 °F (at 12:50 pm)
Minimum temperature yesterday: 64 °F (at 5:30 am)
Average temperature yesterday: 72 °F

High & Low Weather Summary for the Past Weeks

 TemperatureHumidityPressure
High86 °F (May 18, 2:50 pm)88% (May 11, 5:15 am)30.04 "Hg (May 11, 5:15 am)
Low64 °F (May 13, 6:00 am)28% (May 22, 8:50 am)29.65 "Hg (May 19, 12:50 am)
Average74 °F66%29.90 "Hg
* Reported May 11 5:15 am — May 26 5:33 am, Holon. Weather by CustomWeather, © 2017

Note: Actual official high and low records may vary slightly from our data, if they occured in-between our weather recording intervals... More about our weather records

Advertising

Holon Weather History for the Previous 24 Hours

Scroll right to see more
 ConditionsComfort  
Time TempWeatherWind HumidityBarometerVisibility
5:33 am
Fri, May 26
66 °FPassing clouds.3 mph78%29.92 "HgN/A
11:50 pm
Thu, May 25
70 °FPassing clouds.1 mph73%29.95 "HgN/A
10:50 pm70 °FPassing clouds.3 mph73%29.95 "HgN/A
9:50 pm70 °FPassing clouds.6 mph73%29.95 "HgN/A
8:50 pm70 °FPassing clouds.9 mph73%29.95 "HgN/A
7:50 pm72 °FPassing clouds.14 mph69%29.95 "HgN/A
6:50 pm73 °FPartly sunny.15 mph69%29.95 "HgN/A
5:50 pm75 °FPassing clouds.15 mph61%29.95 "HgN/A
4:50 pm75 °FSunny.15 mph61%29.92 "Hg10 mi
3:50 pm75 °FSunny.15 mph61%29.95 "Hg10 mi
2:50 pm75 °FSunny.16 mph65%29.95 "Hg10 mi
1:50 pm75 °FSunny.13 mph61%29.98 "Hg10 mi
12:50 pm75 °FSunny.12 mph61%29.98 "Hg10 mi
11:50 am73 °FSunny.10 mph65%29.98 "Hg10 mi
10:50 am73 °FPassing clouds.9 mph65%30.01 "HgN/A
9:50 am72 °FSunny.8 mph69%29.98 "Hg10 mi
8:50 am72 °FPassing clouds.6 mph69%29.98 "HgN/A
7:50 am70 °FSunny.3 mph69%29.98 "Hg10 mi
6:50 am66 °FPassing clouds.5 mph73%29.98 "HgN/A
Weather by CustomWeather, © 2017

See weather overviewHow to use our weather pages